KC7O Weather Reports


Display with metric or nautical units.
time (UTC)temp
F
wind
direction
speed
MPH
gust
MPH
rain 1hr
in
rain 24hr
in
rain mn
in
humidity
%
barometer
mb
20260903034346 69 196 0.0 0.0 0.00 0.00 0.00 65 1012.9
20260903033844 69 196 0.0 0.0 0.00 0.00 0.00 64 1012.9
20260903032819 70 195 0.0 0.0 0.00 0.00 0.00 64 1012.8
20260903031822 71 196 0.0 0.0 0.00 0.00 0.00 62 1012.7
20260903031325 71 196 0.0 0.0 0.00 0.00 0.00 62 1012.7
20260903030343 72 255 0.0 0.0 0.00 0.00 0.00 60 1012.6
20260903025905 72 255 0.0 0.0 0.00 0.00 0.00 59 1012.7
20260903025328 73 255 0.0 0.0 0.00 0.00 0.00 57 1012.5
20260903024831 73 254 0.0 0.0 0.00 0.00 0.00 55 1012.6
20260903023919 74 255 0.0 0.0 0.00 0.00 0.00 54 1012.5
20260903022839 74 179 0.0 1.0 0.00 0.00 0.00 53 1012.4
20260903020920 76 253 0.0 2.0 0.00 0.00 0.00 52 1012.4
20260903020326 76 254 0.0 3.0 0.00 0.00 0.00 51 1012.3
20260903015827 77 267 1.0 3.0 0.00 0.00 0.00 51 1012.3
20260903014321 77 263 1.0 4.0 0.00 0.00 0.00 52 1012.2
20260903012824 79 271 1.0 2.0 0.00 0.00 0.00 51 1012.1
20260903012331 79 245 0.0 3.0 0.00 0.00 0.00 51 1012.2
20260903011328 79 234 2.0 4.0 0.00 0.00 0.00 51 1012.2
20260903010329 80 260 1.0 3.0 0.00 0.00 0.00 50 1012.2
20260903005909 80 269 1.0 4.0 0.00 0.00 0.00 50 1012.2
20260903005827 80 269 1.0 4.0 0.00 0.00 0.00 50 1012.2
20260903005327 80 268 1.0 4.0 0.00 0.00 0.00 50 1012.2
20260903004837 80 264 1.0 7.0 0.00 0.00 0.00 50 1012.2
20260903004328 80 273 3.0 7.0 0.00 0.00 0.00 50 1012.2
20260903003849 80 263 2.0 5.0 0.00 0.00 0.00 50 1012.2
20260903003331 80 263 2.0 7.0 0.00 0.00 0.00 50 1012.1
20260903001824 81 214 1.0 3.0 0.00 0.00 0.00 49 1012.2
20260903001332 81 255 0.0 4.0 0.00 0.00 0.00 49 1012.1
20260903000830 81 155 2.0 5.0 0.00 0.00 0.00 48 1012.3
20260903000410 81 264 1.0 5.0 0.00 0.00 0.00 49 1012.2
20260902234832 81 155 1.0 6.0 0.00 0.00 0.00 49 1012.3
20260902234332 81 264 2.0 6.0 0.00 0.00 0.00 48 1012.3
20260902233830 82 167 1.0 6.0 0.00 0.00 0.00 48 1012.4
20260902232346 82 262 3.0 6.0 0.00 0.00 0.00 48 1012.4
20260902231338 82 259 3.0 11.0 0.00 0.00 0.00 48 1012.4
20260902230858 82 207 4.0 11.0 0.00 0.00 0.00 48 1012.5
20260902230334 82 208 2.0 7.0 0.00 0.00 0.00 48 1012.5
20260902225915 82 248 2.0 9.0 0.00 0.00 0.00 47 1012.6
20260902225350 82 262 3.0 9.0 0.00 0.00 0.00 48 1012.6
20260902224908 83 250 2.0 4.0 0.00 0.00 0.00 46 1012.6
20260902223845 83 221 4.0 10.0 0.00 0.00 0.00 46 1012.6
20260902223337 84 254 2.0 8.0 0.00 0.00 0.00 45 1012.7
20260902222824 85 186 4.0 7.0 0.00 0.00 0.00 42 1012.7
20260902222343 84 271 1.0 5.0 0.00 0.00 0.00 38 1012.8
20260902220825 84 233 3.0 7.0 0.00 0.00 0.00 38 1012.9
20260902220332 84 186 1.0 8.0 0.00 0.00 0.00 38 1012.9
20260902215834 84 152 3.0 7.0 0.00 0.00 0.00 37 1013.0
20260902215334 84 136 2.0 6.0 0.00 0.00 0.00 38 1013.0
20260902214835 84 177 2.0 6.0 0.00 0.00 0.00 38 1013.1
20260902214336 84 266 2.0 6.0 0.00 0.00 0.00 39 1013.2
20260902213835 84 271 0.0 7.0 0.00 0.00 0.00 36 1013.3
20260902213335 84 207 3.0 7.0 0.00 0.00 0.00 36 1013.4
20260902212410 85 282 1.0 7.0 0.00 0.00 0.00 36 1013.4
20260902212328 85 282 1.0 7.0 0.00 0.00 0.00 36 1013.4
20260902211327 83 155 3.0 7.0 0.00 0.00 0.00 36 1013.4
20260902210846 84 269 2.0 4.0 0.00 0.00 0.00 37 1013.5
20260902210325 83 40 2.0 8.0 0.00 0.00 0.00 38 1013.6
20260902205824 84 283 3.0 8.0 0.00 0.00 0.00 39 1013.7
20260902205321 84 150 2.0 4.0 0.00 0.00 0.00 39 1013.7
20260902204821 84 220 2.0 5.0 0.00 0.00 0.00 36 1013.8
20260902204343 85 153 2.0 5.0 0.00 0.00 0.00 38 1013.8
20260902203819 84 217 0.0 4.0 0.00 0.00 0.00 40 1013.8
20260902203318 84 231 1.0 4.0 0.00 0.00 0.00 40 1013.8
20260902202838 83 237 1.0 4.0 0.00 0.00 0.00 40 1013.9
20260902202336 83 113 1.0 4.0 0.00 0.00 0.00 41 1014.0
20260902201832 83 240 2.0 7.0 0.00 0.00 0.00 40 1014.0
20260902201335 83 249 3.0 7.0 0.00 0.00 0.00 41 1014.1
20260902200327 83 162 2.0 6.0 0.00 0.00 0.00 40 1014.2
20260902195826 83 141 1.0 4.0 0.00 0.00 0.00 43 1014.2
20260902195337 83 148 2.0 4.0 0.00 0.00 0.00 43 1014.2
20260902194335 82 158 1.0 3.0 0.00 0.00 0.00 38 1014.3
20260902193856 82 231 1.0 5.0 0.00 0.00 0.00 37 1014.5
20260902192853 81 304 3.0 6.0 0.00 0.00 0.00 40 1014.6
20260902192332 81 156 2.0 6.0 0.00 0.00 0.00 42 1014.6
20260902191832 81 139 3.0 6.0 0.00 0.00 0.00 41 1014.7
20260902191329 82 283 1.0 4.0 0.00 0.00 0.00 39 1014.7
20260902190849 82 187 2.0 4.0 0.00 0.00 0.00 38 1014.8
20260902184858 80 145 1.0 5.0 0.00 0.00 0.00 42 1014.9
20260902184333 80 157 0.0 6.0 0.00 0.00 0.00 44 1014.9
20260902183852 80 166 2.0 6.0 0.00 0.00 0.00 43 1014.9
20260902181853 79 166 2.0 4.0 0.00 0.00 0.00 47 1015.0
20260902181331 79 167 2.0 4.0 0.00 0.00 0.00 48 1015.1
20260902180826 78 134 2.0 4.0 0.00 0.00 0.00 50 1015.0
20260902180325 78 157 2.0 5.0 0.00 0.00 0.00 49 1014.9
20260902175825 78 139 2.0 5.0 0.00 0.00 0.00 50 1015.0
20260902175324 77 152 2.0 5.0 0.00 0.00 0.00 53 1015.0
20260902174821 76 123 2.0 5.0 0.00 0.00 0.00 53 1015.0
20260902173337 76 108 0.0 2.0 0.00 0.00 0.00 55 1015.1
20260902172835 75 214 1.0 6.0 0.00 0.00 0.00 55 1015.1
20260902172326 75 167 2.0 6.0 0.00 0.00 0.00 57 1015.0
20260902171825 74 192 2.0 4.0 0.00 0.00 0.00 59 1015.0
20260902171324 74 72 1.0 4.0 0.00 0.00 0.00 56 1015.1
20260902170322 74 131 1.0 3.0 0.00 0.00 0.00 60 1014.9
20260902165822 73 143 1.0 3.0 0.00 0.00 0.00 61 1014.8
20260902165350 73 113 2.0 3.0 0.00 0.00 0.00 60 1014.8
20260902164833 73 192 1.0 3.0 0.00 0.00 0.00 60 1014.9
20260902164354 73 153 1.0 3.0 0.00 0.00 0.00 61 1014.9
20260902163833 73 134 0.0 2.0 0.00 0.00 0.00 61 1014.9
20260902162333 72 155 1.0 3.0 0.00 0.00 0.00 61 1014.7
20260902161853 72 160 1.0 3.0 0.00 0.00 0.00 62 1014.8
20260902161332 71 184 1.0 4.0 0.00 0.00 0.00 60 1014.8
20260902160831 71 146 2.0 4.0 0.00 0.00 0.00 58 1014.9
20260902160326 71 169 2.0 4.0 0.00 0.00 0.00 56 1014.9
20260902155850 71 126 1.0 4.0 0.00 0.00 0.00 55 1014.8
20260902155322 71 171 1.0 3.0 0.00 0.00 0.00 55 1014.9
20260902154843 71 140 1.0 3.0 0.00 0.00 0.00 54 1014.8
20260902153837 71 142 1.0 2.0 0.00 0.00 0.00 53 1014.8
20260902153338 71 131 0.0 1.0 0.00 0.00 0.00 55 1014.8
20260902152837 71 176 0.0 0.0 0.00 0.00 0.00 55 1014.8
20260902152332 71 165 0.0 0.0 0.00 0.00 0.00 55 1014.8
20260902151850 70 139 0.0 0.0 0.00 0.00 0.00 53 1014.9
20260902151344 70 145 0.0 2.0 0.00 0.00 0.00 53 1014.8
20260902150821 70 144 1.0 2.0 0.00 0.00 0.00 53 1014.8
20260902150337 70 113 0.0 2.0 0.00 0.00 0.00 52 1014.7
20260902145835 71 153 0.0 0.0 0.00 0.00 0.00 51 1014.7
20260902144856 69 202 0.0 0.0 0.00 0.00 0.00 53 1014.6
20260902144413 67 188 0.0 0.0 0.00 0.00 0.00 63 1014.5
20260902144330 67 188 0.0 0.0 0.00 0.00 0.00 63 1014.5
20260902143829 67 187 0.0 0.0 0.00 0.00 0.00 60 1014.5
20260902143407 67 187 0.0 0.0 0.00 0.00 0.00 61 1014.3
20260902142842 66 188 0.0 0.0 0.00 0.00 0.00 62 1014.3
20260902141942 63 187 0.0 0.0 0.00 0.00 0.00 63 1014.1
20260902140836 60 187 0.0 0.0 0.00 0.00 0.00 65 1014.0
20260902140328 59 188 0.0 0.0 0.00 0.00 0.00 67 1014.0
20260902134847 59 187 0.0 0.0 0.00 0.00 0.00 68 1013.9
20260902134320 59 187 0.0 0.0 0.00 0.00 0.00 68 1013.8
20260902133837 59 187 0.0 0.0 0.00 0.00 0.00 69 1013.8
20260902133335 59 187 0.0 0.0 0.00 0.00 0.00 69 1013.8
20260902132835 59 188 0.0 0.0 0.00 0.00 0.00 70 1013.8
20260902132333 59 187 0.0 0.0 0.00 0.00 0.00 72 1013.9
20260902131833 58 187 0.0 0.0 0.00 0.00 0.00 75 1013.9
20260902131332 57 187 0.0 0.0 0.00 0.00 0.00 78 1013.9
20260902130830 57 188 0.0 0.0 0.00 0.00 0.00 79 1013.9
20260902130330 57 187 0.0 0.0 0.00 0.00 0.00 80 1013.9
20260902125828 58 187 0.0 0.0 0.00 0.00 0.00 81 1014.0
20260902125346 57 187 0.0 0.0 0.00 0.00 0.00 83 1014.0
20260902124844 57 188 0.0 0.0 0.00 0.00 0.00 84 1014.0
20260902124319 57 187 0.0 0.0 0.00 0.00 0.00 84 1014.0
20260902123838 58 187 0.0 0.0 0.00 0.00 0.00 85 1014.0
20260902123338 58 188 0.0 0.0 0.00 0.00 0.00 86 1014.1
20260902122820 58 187 0.0 0.0 0.00 0.00 0.00 87 1014.1
20260902122340 58 188 0.0 0.0 0.00 0.00 0.00 88 1014.1
20260902121820 58 188 0.0 0.0 0.00 0.00 0.00 88 1014.2
20260902121318 58 188 0.0 0.0 0.00 0.00 0.00 88 1014.2
20260902120837 58 188 0.0 0.0 0.00 0.00 0.00 87 1014.1
20260902120338 58 188 0.0 0.0 0.00 0.00 0.00 87 1014.2
20260902115834 58 188 0.0 0.0 0.00 0.00 0.00 87 1014.2
20260902115333 58 187 0.0 0.0 0.00 0.00 0.00 87 1014.2
20260902114830 58 187 0.0 0.0 0.00 0.00 0.00 86 1014.1
20260902114356 59 188 0.0 0.0 0.00 0.00 0.00 86 1014.1
20260902113833 59 187 0.0 0.0 0.00 0.00 0.00 86 1014.0
20260902113331 59 188 0.0 0.0 0.00 0.00 0.00 86 1014.1
20260902112852 59 188 0.0 0.0 0.00 0.00 0.00 86 1014.1
20260902112327 59 187 0.0 0.0 0.00 0.00 0.00 85 1014.2
20260902111833 59 187 0.0 0.0 0.00 0.00 0.00 86 1014.2
20260902111334 59 187 0.0 0.0 0.00 0.00 0.00 85 1014.2
20260902110854 59 188 0.0 0.0 0.00 0.00 0.00 84 1014.2
20260902110333 60 188 0.0 0.0 0.00 0.00 0.00 84 1014.2
20260902105852 60 188 0.0 0.0 0.00 0.00 0.00 84 1014.2
20260902105331 60 187 0.0 0.0 0.00 0.00 0.00 84 1014.2
20260902104828 60 187 0.0 0.0 0.00 0.00 0.00 84 1014.2
20260902104330 60 188 0.0 0.0 0.00 0.00 0.00 84 1014.2
20260902103829 60 187 0.0 0.0 0.00 0.00 0.00 84 1014.2
20260902103331 60 188 0.0 0.0 0.00 0.00 0.00 84 1014.2
20260902102833 60 187 0.0 0.0 0.00 0.00 0.00 85 1014.2
20260902102329 60 188 0.0 0.0 0.00 0.00 0.00 85 1014.3
20260902101826 60 187 0.0 0.0 0.00 0.00 0.00 86 1014.4
20260902101325 60 187 0.0 0.0 0.00 0.00 0.00 86 1014.4
20260902100843 60 187 0.0 0.0 0.00 0.00 0.00 86 1014.5
20260902100320 60 187 0.0 0.0 0.00 0.00 0.00 87 1014.5
20260902095822 60 188 0.0 0.0 0.00 0.00 0.00 87 1014.6
20260902095319 60 188 0.0 0.0 0.00 0.00 0.00 87 1014.6
20260902094858 60 188 0.0 0.0 0.00 0.00 0.00 86 1014.5
20260902094322 60 188 0.0 0.0 0.00 0.00 0.00 86 1014.5
20260902093820 60 188 0.0 0.0 0.00 0.00 0.00 86 1014.5
20260902093338 60 188 0.0 0.0 0.00 0.00 0.00 86 1014.4
20260902092820 60 187 0.0 0.0 0.00 0.00 0.00 86 1014.3
20260902092341 60 188 0.0 0.0 0.00 0.00 0.00 86 1014.3
20260902091819 60 187 0.0 0.0 0.00 0.00 0.00 86 1014.4
20260902091332 60 188 0.0 0.0 0.00 0.00 0.00 85 1014.3
20260902090831 60 187 0.0 0.0 0.00 0.00 0.00 85 1014.4
20260902090336 60 187 0.0 0.0 0.00 0.00 0.00 86 1014.3
20260902085835 60 187 0.0 0.0 0.00 0.00 0.00 85 1014.4
20260902085329 60 187 0.0 0.0 0.00 0.00 0.00 85 1014.3
20260902084826 61 187 0.0 0.0 0.00 0.00 0.00 84 1014.4
20260902084321 61 188 0.0 0.0 0.00 0.00 0.00 84 1014.4
20260902083819 61 188 0.0 0.0 0.00 0.00 0.00 84 1014.6
20260902083329 61 187 0.0 0.0 0.00 0.00 0.00 84 1014.6
20260902082821 61 188 0.0 0.0 0.00 0.00 0.00 83 1014.6
20260902082321 61 188 0.0 0.0 0.00 0.00 0.00 83 1014.5
20260902081820 61 187 0.0 0.0 0.00 0.00 0.00 83 1014.5
20260902081400 61 188 0.0 0.0 0.00 0.00 0.00 83 1014.6
20260902080836 61 188 0.0 0.0 0.00 0.00 0.00 84 1014.6
20260902080335 61 187 0.0 0.0 0.00 0.00 0.00 84 1014.6
20260902075853 61 188 0.0 0.0 0.00 0.00 0.00 84 1014.6
20260902075330 61 188 0.0 0.0 0.00 0.00 0.00 84 1014.6
20260902074831 61 187 0.0 0.0 0.00 0.00 0.00 83 1014.6
20260902074346 61 188 0.0 0.0 0.00 0.00 0.00 83 1014.4
20260902073843 61 187 0.0 0.0 0.00 0.00 0.00 83 1014.3
20260902073322 61 188 0.0 0.0 0.00 0.00 0.00 83 1014.4
20260902072819 62 187 0.0 0.0 0.00 0.00 0.00 82 1014.3
20260902072321 62 187 0.0 0.0 0.00 0.00 0.00 82 1014.2
20260902071837 62 188 0.0 0.0 0.00 0.00 0.00 82 1014.2
20260902071323 62 187 0.0 0.0 0.00 0.00 0.00 81 1014.1
20260902070844 62 188 0.0 0.0 0.00 0.00 0.00 81 1014.0
20260902070322 62 187 0.0 0.0 0.00 0.00 0.00 81 1014.1
20260902065821 63 187 0.0 0.0 0.00 0.00 0.00 81 1014.1
20260902065400 63 187 0.0 0.0 0.00 0.00 0.00 81 1014.0
20260902064820 63 187 0.0 0.0 0.00 0.00 0.00 81 1014.0
20260902064338 63 188 0.0 0.0 0.00 0.00 0.00 80 1014.0
20260902063837 63 188 0.0 0.0 0.00 0.00 0.00 80 1014.0
20260902063339 64 187 0.0 0.0 0.00 0.00 0.00 79 1014.0
20260902062858 64 187 0.0 0.0 0.00 0.00 0.00 79 1013.9
20260902062319 64 187 0.0 0.0 0.00 0.00 0.00 78 1013.9
20260902061838 64 187 0.0 0.0 0.00 0.00 0.00 78 1013.9
20260902061339 64 188 0.0 0.0 0.00 0.00 0.00 77 1014.0
20260902060838 64 187 0.0 0.0 0.00 0.00 0.00 77 1013.9
20260902060339 65 187 0.0 0.0 0.00 0.00 0.00 77 1013.9
20260902055839 65 188 0.0 0.0 0.00 0.00 0.00 75 1014.0
20260902055340 65 188 0.0 0.0 0.00 0.00 0.00 75 1013.9
20260902054825 65 187 0.0 0.0 0.00 0.00 0.00 74 1013.8
20260902054325 65 188 0.0 0.0 0.00 0.00 0.00 72 1013.8
20260902053847 65 188 0.0 0.0 0.00 0.00 0.00 71 1013.8
20260902053325 65 187 0.0 0.0 0.00 0.00 0.00 72 1013.7
20260902052826 65 188 0.0 0.0 0.00 0.00 0.00 72 1013.8
20260902052325 65 188 0.0 0.0 0.00 0.00 0.00 72 1013.8
20260902051822 66 187 0.0 0.0 0.00 0.00 0.00 71 1013.8
20260902051323 66 187 0.0 0.0 0.00 0.00 0.00 71 1013.7
20260902050821 66 187 0.0 0.0 0.00 0.00 0.00 71 1013.7
20260902050321 66 187 0.0 0.0 0.00 0.00 0.00 70 1013.7
20260902045835 66 188 0.0 0.0 0.00 0.00 0.00 69 1013.7
20260902045333 67 187 0.0 0.0 0.00 0.00 0.00 68 1013.7
20260902044825 67 187 0.0 0.0 0.00 0.00 0.00 68 1013.7
20260902044325 67 187 0.0 0.0 0.00 0.00 0.00 66 1013.5
20260902043322 68 188 0.0 0.0 0.00 0.00 0.00 64 1013.3
20260902042822 68 187 0.0 0.0 0.00 0.00 0.00 63 1013.2
20260902042324 68 259 0.0 0.0 0.00 0.00 0.00 63 1013.1
20260902041824 68 259 0.0 0.0 0.00 0.00 0.00 63 1013.1
20260902041326 68 259 0.0 0.0 0.00 0.00 0.00 62 1013.1
20260902040823 68 259 0.0 0.0 0.00 0.00 0.00 62 1013.0
20260902040323 68 259 0.0 0.0 0.00 0.00 0.00 63 1013.0
20260902035824 68 259 0.0 0.0 0.00 0.00 0.00 63 1012.9
20260902035324 68 259 0.0 0.0 0.00 0.00 0.00 62 1012.8